TimeEST,TemperatureF,Dew PointF,Humidity,Sea Level PressureIn,VisibilityMPH,Wind Direction,Wind SpeedMPH,Gust SpeedMPH,PrecipitationIn,Events,Conditions,WindDirDegrees,DateUTC
12:53 AM,57.0,42.1,57,30.33,10.0,NNE,10.4,-,N/A,,Clear,30,2013-11-05 05:53:00
1:53 AM,57.9,43.0,58,30.32,10.0,NNE,10.4,-,N/A,,Overcast,30,2013-11-05 06:53:00
2:53 AM,54.0,43.0,66,30.31,10.0,NNE,10.4,-,N/A,,Clear,30,2013-11-05 07:53:00
3:53 AM,57.0,44.1,62,30.31,10.0,NE,10.4,19.6,N/A,,Overcast,40,2013-11-05 08:53:00
4:53 AM,57.0,45.0,64,30.30,10.0,NE,12.7,-,N/A,,Overcast,50,2013-11-05 09:53:00
5:53 AM,57.0,46.9,69,30.32,10.0,NE,9.2,17.3,N/A,,Overcast,50,2013-11-05 10:53:00
6:53 AM,57.0,46.9,69,30.34,10.0,NE,10.4,19.6,N/A,,Overcast,40,2013-11-05 11:53:00
7:53 AM,57.9,46.9,67,30.35,10.0,NE,10.4,-,N/A,,Overcast,50,2013-11-05 12:53:00
8:14 AM,57.2,46.4,67,30.34,10.0,NE,8.1,-,N/A,,Overcast,50,2013-11-05 13:14:00
8:53 AM,60.1,46.9,62,30.36,10.0,NE,10.4,-,N/A,,Mostly Cloudy,40,2013-11-05 13:53:00
9:00 AM,60.8,46.4,59,30.34,10.0,NNE,15.0,-,N/A,,Overcast,30,2013-11-05 14:00:00
9:53 AM,61.0,46.9,60,30.38,10.0,NE,11.5,21.9,N/A,,Overcast,50,2013-11-05 14:53:00
10:53 AM,59.0,50.0,72,30.38,8.0,NE,9.2,-,0.00,,Overcast,50,2013-11-05 15:53:00
11:03 AM,57.2,50.0,77,30.35,2.0,NE,12.7,19.6,0.00,Rain,Light Rain,50,2013-11-05 16:03:00
11:19 AM,57.2,51.8,82,30.33,2.0,NNE,15.0,-,0.00,Rain,Light Rain,30,2013-11-05 16:19:00
11:34 AM,59.0,51.8,77,30.32,7.0,NNE,12.7,-,0.00,,Overcast,30,2013-11-05 16:34:00
11:53 AM,64.0,51.1,63,30.33,7.0,NE,15.0,19.6,0.00,,Overcast,50,2013-11-05 16:53:00
12:53 PM,70.0,52.0,53,30.29,10.0,NE,12.7,25.3,N/A,,Clear,50,2013-11-05 17:53:00
1:53 PM,73.9,53.1,48,30.27,10.0,NE,12.7,19.6,N/A,,Clear,50,2013-11-05 18:53:00
2:53 PM,73.9,53.1,48,30.26,10.0,NE,10.4,20.7,N/A,,Partly Cloudy,40,2013-11-05 19:53:00
3:53 PM,73.9,51.1,45,30.25,10.0,NE,13.8,18.4,N/A,,Partly Cloudy,40,2013-11-05 20:53:00
4:53 PM,72.0,52.0,49,30.25,10.0,ENE,10.4,-,N/A,,Overcast,60,2013-11-05 21:53:00
5:53 PM,70.0,52.0,53,30.27,10.0,ENE,8.1,17.3,N/A,,Overcast,60,2013-11-05 22:53:00
6:15 PM,69.8,51.8,53,30.25,10.0,ENE,9.2,17.3,N/A,,Overcast,60,2013-11-05 23:15:00
6:53 PM,68.0,53.1,59,30.28,10.0,ENE,8.1,-,N/A,,Overcast,60,2013-11-05 23:53:00
7:53 PM,66.9,52.0,59,30.28,10.0,ENE,15.0,24.2,N/A,,Overcast,70,2013-11-06 00:53:00
8:53 PM,66.0,53.1,63,30.28,10.0,ENE,12.7,18.4,N/A,,Overcast,60,2013-11-06 01:53:00
9:53 PM,64.9,55.0,70,30.28,10.0,NE,8.1,-,N/A,,Overcast,50,2013-11-06 02:53:00
10:07 PM,64.4,55.4,73,30.25,10.0,NE,9.2,-,N/A,,Overcast,50,2013-11-06 03:07:00
10:53 PM,64.0,57.0,78,30.27,10.0,ENE,9.2,-,N/A,,Overcast,70,2013-11-06 03:53:00
11:53 PM,64.9,59.0,81,30.26,10.0,Variable,6.9,-,N/A,,Overcast,0,2013-11-06 04:53:00